Weather History for Muncie, IN

Change the Weather History Date:

Sunday, February 5, 2012

  Actual Average Record
Temperature  
Mean Temperature 37 °F 27 °F  
Max Temperature 46 °F 35 °F 60 °F (1991)
Min Temperature 28 °F 20 °F -11 °F (1979)
Degree Days  
Heating Degree Days 28 38  
Month to date heating degree days 129 190  
Since 1 July heating degree days 3110 3583  
Cooling Degree Days 0 0  
Month to date cooling degree days 0 0  
Year to date cooling degree days 0 0  
Moisture  
Dew Point 28 °F    
Average Humidity 71    
Maximum Humidity 92    
Minimum Humidity 49    
Precipitation  
Precipitation T in 0.08 in 1.91 in (2008)
Month to date precipitation 0.38 0.39  
Year to date precipitation 2.75 2.62  
Sea Level Pressure  
Sea Level Pressure 30.21 in    
Wind  
Wind Speed 4 mph (NE)    
Max Wind Speed 12 mph    
Max Gust Speed 14 mph    
Visibility 6 miles    
Events Snow    
T = Trace of Precipitation, MM = Missing Value Source: NWS Daily Summary

Daily Weather History Graph

Daily Weather History Graph

Search for Another Location

Airport:

Trip Planner

Search our weather history database for the weather conditions in past years. The results will help you decide how hot, cold, wet, or windy it might be!

Date:

Astronomy

Feb. 05, 2012 Rise Set
Actual Time 7:47 AM EST 6:04 PM EST
Civil Twilight 7:18 AM EST 6:33 PM EST
Nautical Twilight 6:46 AM EST 7:05 PM EST
Astronomical Twilight 6:14 AM EST 7:37 PM EST
Moon 4:02 PM EST (2/5) 5:57 AM EST (2/5)
Length of Visible Light 11h 14m
Length of Day
10h 17m
Waxing Gibbous, 94% of the Moon is Illuminated
Feb 5
Waxing Gibbous
Feb 7
Full
Feb 14
Last Quarter
Feb 21
New
Feb 29
First Quarter

Hourly Weather History & Observations

Time (EST) Temp. Windchill Dew Point Humidity Pressure Visibility Wind Dir Wind Speed Gust Speed Precip Events Conditions
12:40 AM 33.8 °F 29.6 °F 30.2 °F 87% 30.12 in 2.5 mi NE 4.6 mph - 0.00 in   Overcast
12:51 AM 33.8 °F 28.6 °F 30.2 °F 87% 30.12 in 3.0 mi NNE 5.8 mph - 0.00 in   Overcast
12:53 AM 33.1 °F 28.7 °F 30.9 °F 92% 30.14 in 3.0 mi NE 4.6 mph - 0.00 in   Overcast
1:53 AM 34.0 °F 28.8 °F 30.9 °F 89% 30.13 in 3.0 mi NE 5.8 mph - N/A   Overcast
2:53 AM 33.1 °F 26.1 °F 30.9 °F 92% 30.15 in 3.0 mi NE 8.1 mph - N/A   Overcast
3:53 AM 32.0 °F 26.4 °F 30.0 °F 92% 30.15 in 4.0 mi NNE 5.8 mph - N/A   Scattered Clouds
4:53 AM 30.0 °F 25.2 °F 28.0 °F 92% 30.16 in 4.0 mi NE 4.6 mph - N/A   Clear
5:28 AM 30.2 °F 26.7 °F 26.6 °F 86% 30.15 in 3.0 mi NNE 3.5 mph - N/A   Partly Cloudy
5:44 AM 28.4 °F - 26.6 °F 93% 30.16 in 3.0 mi Calm Calm - N/A   Mostly Cloudy
5:53 AM 28.9 °F - 27.0 °F 92% 30.17 in 3.0 mi Calm Calm - N/A   Mostly Cloudy
6:53 AM 30.9 °F 26.2 °F 28.0 °F 89% 30.19 in 4.0 mi East 4.6 mph - N/A   Overcast
7:53 AM 30.0 °F 24.1 °F 28.0 °F 92% 30.22 in 2.5 mi NE 5.8 mph - N/A   Overcast
8:06 AM 30.2 °F 23.4 °F 26.6 °F 86% 30.20 in 1.5 mi NE 6.9 mph - N/A   Overcast
8:53 AM 28.9 °F 23.9 °F 27.0 °F 92% 30.24 in 1.5 mi ENE 4.6 mph - N/A   Overcast
9:18 AM 30.2 °F 24.3 °F 26.6 °F 86% 30.23 in 2.0 mi ENE 5.8 mph - N/A   Overcast
9:48 AM 30.2 °F 26.7 °F 28.4 °F 93% 30.23 in 3.0 mi ENE 3.5 mph - N/A   Mostly Cloudy
9:53 AM 30.9 °F 27.5 °F 27.0 °F 85% 30.25 in 3.0 mi NE 3.5 mph - N/A   Mostly Cloudy
9:56 AM 30.2 °F 25.4 °F 28.4 °F 93% 30.23 in 2.5 mi NE 4.6 mph - N/A   Scattered Clouds
10:10 AM 32.0 °F 28.7 °F 28.4 °F 87% 30.24 in 3.0 mi NNE 3.5 mph - N/A   Partly Cloudy
10:53 AM 35.1 °F 29.3 °F 28.9 °F 78% 30.26 in 5.0 mi NE 6.9 mph - N/A   Haze
11:11 AM 35.6 °F 29.2 °F 30.2 °F 81% 30.25 in 4.0 mi North 8.1 mph - N/A   Haze
11:53 AM 39.0 °F 34.8 °F 30.9 °F 73% 30.26 in 7.0 mi NE 5.8 mph - N/A   Clear
12:53 PM 41.0 °F 36.4 °F 28.9 °F 62% 30.24 in 10.0 mi NE 6.9 mph - N/A   Clear
1:53 PM 43.0 °F 38.8 °F 28.9 °F 58% 30.24 in 10.0 mi ENE 6.9 mph - N/A   Clear
2:53 PM 44.1 °F 41.5 °F 28.0 °F 53% 30.24 in 10.0 mi NNE 4.6 mph - N/A   Clear
3:53 PM 45.0 °F 43.5 °F 27.0 °F 49% 30.24 in 10.0 mi North 3.5 mph - N/A   Clear
4:53 PM 45.0 °F 42.6 °F 27.0 °F 49% 30.24 in 10.0 mi North 4.6 mph - N/A   Clear
5:53 PM 42.1 °F - 27.0 °F 55% 30.26 in 10.0 mi Calm Calm - N/A   Clear
6:53 PM 37.0 °F 34.5 °F 26.1 °F 65% 30.27 in 10.0 mi NE 3.5 mph - N/A   Clear
7:53 PM 34.0 °F - 27.0 °F 75% 30.28 in 10.0 mi Calm Calm - N/A   Clear
8:53 PM 33.1 °F - 27.0 °F 78% 30.28 in 10.0 mi Calm Calm - N/A   Clear
9:53 PM 30.9 °F - 26.1 °F 82% 30.27 in 10.0 mi Calm Calm - N/A   Clear
10:53 PM 28.9 °F 25.2 °F 25.0 °F 85% 30.26 in 10.0 mi SSW 3.5 mph - N/A   Clear
11:53 PM 28.9 °F - 25.0 °F 85% 30.25 in 10.0 mi Calm Calm - N/A   Clear